Location: Unspecified
(0.0000°N, 0.0000°E)
Time: 06:00:01
(UTC+00:00)

ISS - Pass Details

Date: 18 October 2019
Orbit: 411 x 421 km, 51.6° (Epoch: 14 October)

Event Time Altitude Azimuth Distance (km) Brightness Sun altitude
Rises 04:37:24 0° 184° (S) 2,364 0.1 -16.7°
Reaches altitude 10° 04:40:31 10° 152° (SSE) 1,497 -0.4 -16.0°
Maximum altitude 04:41:59 12° 126° (SE) 1,361 -0.2 -15.6°
Drops below altitude 10° 04:43:27 10° 100° (E) 1,494 0.4 -15.2°
Sets 04:46:33 0° 69° (ENE) 2,353 1.1 -14.5°
